This is the latest recevied weather packets stored in our database for station/object N8QQQ. If no packets are shown the sender has not sent any weather packets the latest 10 day(s).
| Time | Temp. | Humidity | Pressure | Rain* | Wind** | Luminosity | Snow |
|---|---|---|---|---|---|---|---|
| 1778273683 | 15° C | 26% | 1002.8 hPa | 0 mm | - | 122 W/m² | - |
| 1778273379 | 15.56° C | 25% | 1002.9 hPa | 0 mm | - | 133 W/m² | - |
| 1778273077 | 16.11° C | 25% | 1003.1 hPa | 0 mm | - | 150 W/m² | - |
| 1778272772 | 15° C | 26% | 1002.8 hPa | 0 mm | - | 419 W/m² | - |
| 1778272468 | 15° C | 25% | 1003 hPa | 0 mm | - | 178 W/m² | - |
| 1778272164 | 15° C | 25% | 1003.2 hPa | 0 mm | - | 122 W/m² | - |
| 1778271862 | 15° C | 26% | 1003.1 hPa | 0 mm | - | 279 W/m² | - |
| 1778271558 | 13.89° C | 26% | 1003.3 hPa | 0 mm | - | 164 W/m² | - |
| 1778271255 | 14.44° C | 26% | 1003.3 hPa | 0 mm | - | 112 W/m² | - |
| 1778270952 | 15° C | 26% | 1003.2 hPa | 0 mm | - | 141 W/m² | - |
| 1778270648 | 16.11° C | 24% | 1003.5 hPa | 0 mm | - | 206 W/m² | - |
| 1778270338 | 15.56° C | 27% | 1003.4 hPa | 0 mm | - | 278 W/m² | - |
| 1778270035 | 15° C | 27% | 1003.4 hPa | 0 mm | - | 337 W/m² | - |
| 1778269731 | 15° C | 27% | 1003.4 hPa | 0 mm | - | 121 W/m² | - |
| 1778269429 | 15° C | 25% | 1003.6 hPa | 0 mm | - | 270 W/m² | - |
| 1778269126 | 15° C | 26% | 1003.8 hPa | 0 mm | - | 150 W/m² | - |
| 1778268823 | 13.89° C | 26% | 1003.8 hPa | 0 mm | - | 404 W/m² | - |
| 1778268518 | 13.89° C | 26% | 1003.7 hPa | 0 mm | - | 159 W/m² | - |
| 1778268216 | 13.89° C | 27% | 1003.6 hPa | 0 mm | - | 353 W/m² | - |
| 1778267913 | 13.89° C | 25% | 1003.9 hPa | 0 mm | - | 122 W/m² | - |
| 1778267610 | 15° C | 25% | 1004 hPa | 0 mm | - | 473 W/m² | - |
| 1778267307 | 15° C | 25% | 1003.9 hPa | 0 mm | - | 518 W/m² | - |
| 1778267004 | 15° C | 25% | 1004.1 hPa | 0 mm | - | 124 W/m² | - |
| 1778266700 | 15.56° C | 26% | 1004.1 hPa | 0 mm | - | 408 W/m² | - |
| 1778266398 | 15° C | 25% | 1004.2 hPa | 0 mm | - | 562 W/m² | - |
* Rain latest hour (hover to see other rain measurements)
** Current wind speed in m/s (hover to see current wind gust speed)